Time,TemperatureF,DewpointF,PressureIn,WindDirection,WindDirectionDegrees,WindSpeedMPH,WindSpeedGustMPH,Humidity,HourlyPrecipIn,Conditions,Clouds,dailyrainin,SoftwareType,DateUTC
2014-07-31 00:01:00,68.3,64.3,29.96,WSW,250,0.0,0.0,87,0.00,,---,0.00,VWS V15.00,2014-07-31 04:01:00,
2014-07-31 00:02:00,68.2,64.2,29.96,WSW,250,0.0,0.0,87,0.00,,---,0.00,VWS V15.00,2014-07-31 04:02:00,
2014-07-31 00:07:00,68.0,64.0,29.96,WSW,250,0.0,0.0,87,0.00,,---,0.00,VWS V15.00,2014-07-31 04:07:00,
2014-07-31 00:12:00,67.9,64.2,29.96,WSW,250,0.0,0.0,88,0.00,,---,0.00,VWS V15.00,2014-07-31 04:12:00,
2014-07-31 00:17:00,67.6,63.9,29.96,WSW,250,0.0,0.0,88,0.00,,---,0.00,VWS V15.00,2014-07-31 04:17:00,
2014-07-31 00:22:00,67.5,63.8,29.96,WSW,250,0.0,0.0,88,0.00,,---,0.00,VWS V15.00,2014-07-31 04:22:00,
2014-07-31 00:27:00,67.3,64.0,29.96,WSW,250,0.0,0.0,89,0.00,,---,0.00,VWS V15.00,2014-07-31 04:27:00,
2014-07-31 00:32:00,67.1,63.8,29.96,WSW,250,0.0,0.0,89,0.00,,---,0.00,VWS V15.00,2014-07-31 04:32:00,
2014-07-31 00:37:00,66.8,63.5,29.96,WSW,250,0.0,0.0,89,0.00,,---,0.00,VWS V15.00,2014-07-31 04:37:00,
2014-07-31 00:42:00,66.7,63.4,29.96,WSW,250,0.0,0.0,89,0.00,,---,0.00,VWS V15.00,2014-07-31 04:42:00,
2014-07-31 00:47:00,66.5,63.5,29.96,WSW,250,0.0,0.0,90,0.00,,---,0.00,VWS V15.00,2014-07-31 04:47:00,
2014-07-31 00:52:00,66.3,63.3,29.96,WSW,250,0.0,0.0,90,0.00,,---,0.00,VWS V15.00,2014-07-31 04:52:00,
2014-07-31 00:57:00,66.2,63.2,29.96,WSW,250,0.0,0.0,90,0.00,,---,0.00,VWS V15.00,2014-07-31 04:57:00,
2014-07-31 01:02:00,65.9,62.9,29.96,WSW,250,0.0,0.0,90,0.00,,---,0.00,VWS V15.00,2014-07-31 05:02:00,
2014-07-31 01:07:00,65.8,63.1,29.96,WSW,250,0.0,0.0,91,0.00,,---,0.00,VWS V15.00,2014-07-31 05:07:00,
2014-07-31 01:12:00,65.7,63.0,29.96,WSW,250,0.0,0.0,91,0.00,,---,0.00,VWS V15.00,2014-07-31 05:12:00,
2014-07-31 01:17:00,65.6,62.9,29.96,WSW,250,0.0,0.0,91,0.00,,---,0.00,VWS V15.00,2014-07-31 05:17:00,
2014-07-31 01:22:00,65.5,62.8,29.96,WSW,250,0.0,0.0,91,0.00,,---,0.00,VWS V15.00,2014-07-31 05:22:00,
2014-07-31 01:27:00,65.3,62.6,29.96,WSW,250,0.0,0.0,91,0.00,,---,0.00,VWS V15.00,2014-07-31 05:27:00,
2014-07-31 01:32:00,65.2,62.8,29.96,WSW,250,0.0,0.0,92,0.00,,---,0.00,VWS V15.00,2014-07-31 05:32:00,
2014-07-31 01:37:00,65.0,62.6,29.96,WSW,250,0.0,0.0,92,0.00,,---,0.00,VWS V15.00,2014-07-31 05:37:00,
2014-07-31 01:42:00,64.9,62.5,29.96,WSW,250,0.0,0.0,92,0.00,,---,0.00,VWS V15.00,2014-07-31 05:42:00,
2014-07-31 01:47:00,64.8,62.4,29.96,WSW,250,0.0,0.0,92,0.00,,---,0.00,VWS V15.00,2014-07-31 05:47:00,
2014-07-31 01:52:00,64.6,62.2,29.96,WSW,250,0.0,0.0,92,0.00,,---,0.00,VWS V15.00,2014-07-31 05:52:00,
2014-07-31 01:57:00,64.5,62.4,29.96,WSW,250,0.0,0.0,93,0.00,,---,0.00,VWS V15.00,2014-07-31 05:57:00,
2014-07-31 02:01:00,64.4,62.3,29.96,WSW,250,0.0,0.0,93,0.00,,---,0.00,VWS V15.00,2014-07-31 06:01:00,
2014-07-31 02:06:00,64.3,62.2,29.96,WSW,250,0.0,0.0,93,0.00,,---,0.00,VWS V15.00,2014-07-31 06:06:00,
2014-07-31 02:11:00,64.1,62.0,29.96,WSW,250,0.0,0.0,93,0.00,,---,0.00,VWS V15.00,2014-07-31 06:11:00,
2014-07-31 02:16:00,64.0,61.9,29.96,WSW,250,0.0,0.0,93,0.00,,---,0.00,VWS V15.00,2014-07-31 06:16:00,
2014-07-31 02:21:00,64.0,62.2,29.96,WSW,250,0.0,0.0,94,0.00,,---,0.00,VWS V15.00,2014-07-31 06:21:00,
2014-07-31 02:26:00,64.0,62.2,29.96,WSW,250,0.0,0.0,94,0.00,,---,0.00,VWS V15.00,2014-07-31 06:26:00,
2014-07-31 02:31:00,64.0,62.2,29.96,WSW,250,0.0,0.0,94,0.00,,---,0.00,VWS V15.00,2014-07-31 06:31:00,
2014-07-31 02:36:00,63.9,62.1,29.96,WSW,250,0.0,0.0,94,0.00,,---,0.00,VWS V15.00,2014-07-31 06:36:00,
2014-07-31 02:41:00,63.8,62.0,29.96,WSW,250,0.0,0.0,94,0.00,,---,0.00,VWS V15.00,2014-07-31 06:41:00,
2014-07-31 02:46:00,63.7,62.0,29.96,WSW,250,0.0,0.0,94,0.00,,---,0.00,VWS V15.00,2014-07-31 06:46:00,
2014-07-31 02:51:00,63.6,61.8,29.96,WSW,250,0.0,0.0,94,0.00,,---,0.00,VWS V15.00,2014-07-31 06:51:00,
2014-07-31 02:56:00,63.6,61.8,29.96,WSW,250,0.0,0.0,94,0.00,,---,0.00,VWS V15.00,2014-07-31 06:56:00,
2014-07-31 03:01:00,63.4,61.7,29.96,WSW,250,0.0,0.0,94,0.00,,---,0.00,VWS V15.00,2014-07-31 07:01:00,
2014-07-31 03:06:00,63.3,61.5,29.96,WSW,250,0.0,0.0,94,0.00,,---,0.00,VWS V15.00,2014-07-31 07:06:00,
2014-07-31 03:11:00,63.3,61.5,29.96,WSW,250,0.0,0.0,94,0.00,,---,0.00,VWS V15.00,2014-07-31 07:11:00,
2014-07-31 03:16:00,63.2,61.5,29.96,WSW,250,0.0,0.0,94,0.00,,---,0.00,VWS V15.00,2014-07-31 07:16:00,
2014-07-31 03:21:00,63.2,61.8,29.96,WSW,250,0.0,0.0,95,0.00,,---,0.00,VWS V15.00,2014-07-31 07:21:00,
2014-07-31 03:26:00,63.1,61.7,29.96,WSW,250,0.0,0.0,95,0.00,,---,0.00,VWS V15.00,2014-07-31 07:26:00,
2014-07-31 03:31:00,63.0,61.5,29.96,WSW,250,0.0,0.0,95,0.00,,---,0.00,VWS V15.00,2014-07-31 07:31:00,
2014-07-31 03:36:00,62.9,61.5,29.96,WSW,250,0.0,0.0,95,0.00,,---,0.00,VWS V15.00,2014-07-31 07:36:00,
2014-07-31 03:41:00,62.8,61.3,29.96,WSW,250,0.0,0.0,95,0.00,,---,0.00,VWS V15.00,2014-07-31 07:41:00,
2014-07-31 03:46:00,62.7,61.2,29.96,WSW,250,0.0,0.0,95,0.00,,---,0.00,VWS V15.00,2014-07-31 07:46:00,
2014-07-31 03:51:00,62.6,61.2,29.96,WSW,250,0.0,0.0,95,0.00,,---,0.00,VWS V15.00,2014-07-31 07:51:00,
2014-07-31 03:56:00,62.6,61.2,29.96,WSW,250,0.0,0.0,95,0.00,,---,0.00,VWS V15.00,2014-07-31 07:56:00,
2014-07-31 04:01:00,62.5,61.0,29.96,WSW,250,0.0,0.0,95,0.00,,---,0.00,VWS V15.00,2014-07-31 08:01:00,
2014-07-31 04:07:00,62.4,61.0,29.96,WSW,250,0.0,0.0,95,0.00,,---,0.00,VWS V15.00,2014-07-31 08:07:00,
2014-07-31 04:12:00,62.4,61.0,29.96,WSW,250,0.0,0.0,95,0.00,,---,0.00,VWS V15.00,2014-07-31 08:12:00,
2014-07-31 04:17:00,62.3,60.8,29.96,WSW,250,0.0,0.0,95,0.00,,---,0.00,VWS V15.00,2014-07-31 08:17:00,
2014-07-31 04:22:00,62.3,60.8,29.96,WSW,250,0.0,0.0,95,0.00,,---,0.00,VWS V15.00,2014-07-31 08:22:00,
2014-07-31 04:26:00,62.2,60.8,29.96,WSW,250,0.0,0.0,95,0.00,,---,0.00,VWS V15.00,2014-07-31 08:26:00,
2014-07-31 04:31:00,62.1,60.7,29.96,WSW,250,0.0,0.0,95,0.00,,---,0.00,VWS V15.00,2014-07-31 08:31:00,
2014-07-31 04:36:00,62.1,60.7,29.96,WSW,250,0.0,0.0,95,0.00,,---,0.00,VWS V15.00,2014-07-31 08:36:00,
2014-07-31 04:41:00,62.0,60.6,29.96,WSW,250,0.0,0.0,95,0.00,,---,0.00,VWS V15.00,2014-07-31 08:41:00,
2014-07-31 04:46:00,61.9,60.5,29.96,WSW,250,0.0,0.0,95,0.00,,---,0.00,VWS V15.00,2014-07-31 08:46:00,
2014-07-31 04:51:00,61.9,60.5,29.96,WSW,250,0.0,0.0,95,0.00,,---,0.00,VWS V15.00,2014-07-31 08:51:00,
2014-07-31 04:56:00,61.8,60.4,29.96,WSW,250,0.0,0.0,95,0.00,,---,0.00,VWS V15.00,2014-07-31 08:56:00,
2014-07-31 05:01:00,61.7,60.3,29.96,WSW,250,0.0,0.0,95,0.00,,---,0.00,VWS V15.00,2014-07-31 09:01:00,
2014-07-31 05:06:00,61.6,60.2,29.96,WSW,250,0.0,0.0,95,0.00,,---,0.00,VWS V15.00,2014-07-31 09:06:00,
2014-07-31 05:11:00,61.6,60.2,29.96,WSW,250,0.0,0.0,95,0.00,,---,0.00,VWS V15.00,2014-07-31 09:11:00,
2014-07-31 05:16:00,61.5,60.1,29.96,WSW,250,0.0,0.0,95,0.00,,---,0.00,VWS V15.00,2014-07-31 09:16:00,
2014-07-31 05:21:00,61.5,60.1,29.97,WSW,250,0.0,0.0,95,0.00,,---,0.00,VWS V15.00,2014-07-31 09:21:00,
2014-07-31 05:26:00,61.4,60.0,29.97,WSW,250,0.0,0.0,95,0.00,,---,0.00,VWS V15.00,2014-07-31 09:26:00,
2014-07-31 05:31:00,61.3,59.9,29.97,WSW,250,0.0,0.0,95,0.00,,---,0.00,VWS V15.00,2014-07-31 09:31:00,
2014-07-31 05:36:00,61.2,59.8,29.97,WSW,250,0.0,0.0,95,0.00,,---,0.00,VWS V15.00,2014-07-31 09:36:00,
2014-07-31 05:41:00,61.2,59.8,29.97,WSW,250,0.0,0.0,95,0.00,,---,0.00,VWS V15.00,2014-07-31 09:41:00,
2014-07-31 05:46:00,61.1,60.0,29.97,WSW,250,0.0,0.0,96,0.00,,---,0.00,VWS V15.00,2014-07-31 09:46:00,
2014-07-31 05:51:00,61.1,60.0,29.97,WSW,250,0.0,0.0,96,0.00,,---,0.00,VWS V15.00,2014-07-31 09:51:00,